P/2005 W3 ( Kowalski )

Japanese version
Home page
Updated on April 23, 2006

---------------------------------------------------------------------

* Profile

Discovery Date November 25, 2005
Magnitude 18.2 mag
Discoverer Richard Kowalski (Catalina Sky Survey)

* Orbital Elements

T 2005 Aug. 23.1142 TT                                  MPC
q   3.008431             (2000.0)            P               Q
n   0.0607769      Peri.  199.2511      +0.6391726      -0.7540750
a   6.406834       Node   211.5639      +0.7380349      +0.6566729
e   0.530434       Incl.   16.7772      +0.2162472      -0.0123165
P  16.2
>From 102 observations 2005 Sept. 30-Dec. 29.

* Magnitudes Graph

        m1 = 12.0 + 5 log d + 10.0 log r

---------------------------------------------------------------------

The orbital elements are published on M.P.E.C. 2005-Y52.
The magnitudes graphs are made with Comet for Windows.

---------------------------------------------------------------------

Copyright(C) Seiichi Yoshida (comet@aerith.net). All rights reserved.